Location: Poprad
(49.0500°N, 20.3000°E)
Time: 18:22:37
(UTC+02:00)

ISS - Pass Details

Date: 30 March 2019
Orbit: 408 x 410 km, 51.6° (Epoch: 22 April)

Event Time Altitude Azimuth Distance (km) Brightness Sun altitude
Rises 20:51:59 0° 289° (WNW) 2,338 1.1 -25.4°
Reaches altitude 10° 20:54:05 10° 289° (WNW) 1,474 -0.1 -25.6°
Enters shadow 20:55:36 25° 288° (WNW) 870 -1.6 -25.8°
